Content
SEND FEEDBACK

Daily
Averages
Monthly
Summary
Turkmenistan

ASHGABAT, TURKMENISTAN


Home > Asia > Turkmenistan
Elevation: 775 feet     Latitude: 37 58N     Longitude: 058 20E

WEATHER
 
SELECT A DAY
Number of Records: 181,250;   Date Range: 3/15/97 - 10/23/14
 
SHARE

PRINT THIS DATA

[ ← Previous Day ]
WEATHER ALMANAC - MARCH 16, 2013
[ Next Day → ]
[ °C ]   °F
Weather ElementAverageHighLow
Temperature56 °F66.2 °F (4:00 pm)44.6 °F (7:00 am)
Dewpoint39.7 °F45 °F (2:00 am)35 °F (11:00 pm)
Humidity53.4 %76 % (1:00 am)31 % (5:00 pm)
Barometer30.18 in30.30 in (3:00 am)30.06 in (9:30 pm)
Wind Speed6.6 mph11.2 mph (2:00 pm)
Weather ElementAverage
Visibility6.2 mi
Wind DirectionE (85.7 °)

Weather ElementTotal
Precipitation---
Heating Degree Days9.6 (Base 65)
Growing Degree Days5.4 (Base 50)
Averaged from 37 records on March 16, 2013
WEATHER CONDITIONS BREAKOUT
WIND DIRECTION BREAKOUT
WEATHER BY HOUR - MARCH 16, 2013
[ °C ]   °F
Local TimeTemperatureDewpointHumidityBarometerVisibilityWind DirectionWind SpeedGust SpeedPrecipitationEventsConditions
1:00 AM51.8 °F44.6 °F76 %30.27 in6.2 miVariable2.2 mphMostly Cloudy
2:00 AM53.0 °F45.0 °F65 %30.29 in6.0 miNNE (20°)2.2 mphScattered Clouds
2:00 AM53.6 °F41.0 °F62 %30.27 in6.2 miNE (40°)4.5 mphMostly Cloudy
3:00 AM50.0 °F39.2 °F66 %30.30 in6.2 miVariable2.2 mphMostly Cloudy
4:00 AM50.0 °F37.4 °F62 %30.27 in6.2 miNNE (30°)4.5 mphPartly Cloudy
5:00 AM48.0 °F38.0 °F59 %30.30 in6.0 miNE (40°)4.5 mph
5:00 AM48.2 °F37.4 °F66 %30.27 in6.2 miNE (50°)6.7 mphClear
6:00 AM46.4 °F37.4 °F71 %30.27 in6.2 miEast (80°)4.5 mphScattered Clouds
7:00 AM44.6 °F37.4 °F76 %30.27 in6.2 miEast (100°)4.5 mphMostly Cloudy
7:30 AM44.6 °F37.4 °F76 %30.27 in6.2 miENE (70°)4.5 mphMostly Cloudy
8:00 AM45.0 °F36.0 °F63 %30.30 in6.0 miESE (120°)4.5 mphScattered Clouds
8:00 AM46.4 °F35.6 °F66 %30.27 in6.2 miEast (90°)4.5 mphScattered Clouds
9:00 AM48.2 °F37.4 °F66 %30.27 in6.2 miESE (110°)6.7 mphMostly Cloudy
10:00 AM51.8 °F39.2 °F62 %30.24 in6.2 miEast (100°)8.9 mphOvercast
11:00 AM56.0 °F39.0 °F41 %30.27 in6.0 miEast (100°)8.9 mphOvercast
11:00 AM53.6 °F39.2 °F58 %30.24 in6.2 miEast (90°)8.9 mphOvercast
12:00 PM57.2 °F41.0 °F55 %30.21 in6.2 miEast (100°)8.9 mphOvercast
1:00 PM60.8 °F39.2 °F45 %30.18 in6.2 miESE (120°)8.9 mphMostly Cloudy
2:00 PM60.8 °F41.0 °F48 %30.15 in6.2 miESE (110°)8.9 mphOvercast
2:00 PM62.0 °F40.0 °F32 %30.18 in6.0 miEast (90°)11.2 mphOvercast
3:00 PM64.4 °F41.0 °F42 %30.15 in6.2 miESE (110°)6.7 mphOvercast
4:00 PM66.2 °F41.0 °F40 %30.12 in6.2 miEast (100°)8.9 mphOvercast
4:30 PM66.2 °F41.0 °F40 %30.12 in6.2 miEast (100°)6.7 mphOvercast
5:00 PM65.0 °F42.0 °F31 %30.13 in6.0 miENE (70°)4.5 mphOvercast
5:00 PM64.4 °F39.2 °F40 %30.09 in6.2 miEast (90°)8.9 mphOvercast
5:30 PM64.4 °F39.2 °F40 %30.09 in6.2 miEast (90°)11.2 mphMostly Cloudy
6:00 PM64.4 °F41.0 °F42 %30.09 in6.2 miEast (90°)8.9 mphMostly Cloudy
7:00 PM60.8 °F42.8 °F52 %30.09 in6.2 miESE (110°)6.7 mphMostly Cloudy
7:30 PM59.0 °F41.0 °F51 %30.09 in6.2 miESE (110°)6.7 mphMostly Cloudy
8:00 PM59.0 °F43.0 °F44 %30.10 in6.0 miSE (130°)4.5 mphPartly Cloudy
8:00 PM59.0 °F41.0 °F51 %30.09 in6.2 miESE (110°)4.5 mphMostly Cloudy
8:30 PM60.8 °F42.8 °F52 %30.09 in6.2 miEast (100°)6.7 mphMostly Cloudy
9:00 PM59.0 °F42.8 °F55 %30.09 in6.2 miEast (100°)6.7 mphMostly Cloudy
9:30 PM57.2 °F41.0 °F55 %30.06 in6.2 miEast (90°)8.9 mphMostly Cloudy
10:00 PM57.2 °F37.4 °F48 %30.09 in6.2 miEast (100°)8.9 mphMostly Cloudy
11:00 PM56.0 °F35.0 °F32 %30.09 in6.0 miEast (100°)8.9 mphMostly Cloudy
11:00 PM55.4 °F35.6 °F47 %30.06 in6.2 miESE (110°)6.7 mphMostly Cloudy
Hourly data recorded from UTAA, located miles away from Ashgabat, Turkmenistan







STORIES FROM OUR PARTNERS